Вернуться в каталог

COSMOS 1247

АктивенНавигацияHEO
NORAD 12303·PAYLOAD·🇷🇺 Russia

Запущен Feb 19, 1981 с Plesetsk Cosmodrome

Loading…

Ближайшие Пролёты (ближайшие 24 часа)

TLE

СвежийSource: Space-Track

Эпоха: Sep 9, 2026, 13:46 UTC

1 12303U 81016A   26252.57379288  .00000080  00000-0  00000-0 0  9999
2 12303  69.3072 349.6926 6209726 336.3168   4.4896  2.02487979336886

Отслеживайте COSMOS 1247 в реальном времени с AllMySat

Download on the App Store